Hourly Data Report for July 27, 2020

TORONTO CITY
ONTARIO
Current Station Operator: ECCC - MSC

43°40'00.000" N
79°24'00.000" W
112.50 m
6158355
71508
XTO

Download Data

Hourly Data (July 2020)
Hourly Data Report for July 27, 2020
TIME
LST
Temp Definition
°C
Dew Point Definition
°C
Rel Hum Definition
%
Precip. Amount Definition
mm

Wind Dir Definition
10's deg

Wind Spd Definition
km/h
Visibility Definition
km
Stn Press Definition
kPa
Hmdx Definition


Wind Chill Definition


Weather Definition


00:00 26.3 17.7 59 0.0       99.75 32   LegendNANA
01:00 25.1 17.7 64 0.0       99.66 31   LegendNANA
02:00 24.2 18.1 69 0.0       99.61 30   LegendNANA
03:00 23.9 18.8 73 0.0       99.56 31   LegendNANA
04:00 24.3 19.4 74 0.0       99.52 31   LegendNANA
05:00 24.2 19.7 76 0.0       99.48 32   LegendNANA
06:00 24.5 20.0 76 0.0       99.49 32   LegendNANA
07:00 25.8 20.8 74 0.0       99.46 34   LegendNANA
08:00 28.6 20.6 62 0.0       99.45 37   LegendNANA
09:00 29.5 20.0 57 0.0       99.42 37   LegendNANA
10:00 30.0 19.4 53 0.0       99.44 37   LegendNANA
11:00 30.6 19.2 51 0.0       99.43 38   LegendNANA
12:00 29.0 17.9 51 0.0       99.46 35   LegendNANA
13:00 28.5 23.4 74 2.2       99.41 39   LegendNANA
14:00 31.7 20.6 52 0.0       99.32 40   LegendNANA
15:00 32.3 18.9 45 0.0       99.26 39   LegendNANA
16:00 31.5 18.9 47 0.0       99.25 38   LegendNANA
17:00 31.1 19.1 49 0.0       99.24 38   LegendNANA
18:00 30.8 18.2 47 0.0       99.24 37   LegendNANA
19:00 30.1 18.3 49 0.2       99.28 36   LegendNANA
20:00 29.1 18.0 51 0.0       99.30 35   LegendNANA
21:00 28.6 18.5 55 0.0       99.34 35   LegendNANA
22:00 23.7 19.1 75 0.3       99.37 31   LegendNANA
23:00 24.0 17.3 66 0.0       99.40 29   LegendNANA

Notes on Data Quality.

Legend

  • E = Estimated
  • M = Missing
  • NA = Not Available*
  • [empty] = Indicates an unobserved value
Date modified: